Dewpoint
36 37 38 38 41 44 47 49 51 53 54 55 57 59 58 57 57 56 55 60 60 58 56 57 56 57 56 57 55 54 53 54 52 53 53 53 53 54 54 55 54 54 54
36 37 38 38 39 42 44 47 49 52 54 55 55 58 57 56 58 57 57 58 60 59 59 57 57 58 56 56 56 55 53 52 52 53 54 54 53 54 54 54 54 54 54
35 36 36 37 39 41 42 44 46 49 53 55 56 57 58 56 56 58 58 58 58 59 59 56 57 57 56 56 56 56 53 53 53 52 53 54 54 54 54 54 54 54 54
33 34 35 36 39 39 39 43 45 47 51 52 54 56 57 56 56 57 58 58 57 57 57 58 56 55 57 56 57 57 55 54 54 53 52 53 54 54 53 53 54 54 53
33 33 33 35 37 37 37 40 44 47 49 48 49 55 57 56 57 57 57 58 59 58 56 57 57 57 57 57 57 57 57 55 54 54 53 53 54 53 53 53 53 53 53
30 31 32 33 34 35 36 37 42 45 47 47 49 54 55 56 57 57 57 57 58 58 58 56 56 55 57 56 55 56 59 58 56 54 54 54 54 53 53 52 52 53 53
29 30 30 30 33 32 34 35 39 42 45 45 49 50 54 55 55 56 56 56 56 56 57 57 56 55 55 55 54 54 55 56 59 56 55 53 54 53 53 52 52 52 53
27 25 29 29 30 31 32 34 37 40 43 43 44 45 50 48 51 54 55 55 55 55 55 55 55 55 56 56 54 54 53 54 55 56 58 56 54 52 53 52 52 52 52
24 25 26 27 29 30 31 32 35 36 39 41 43 43 44 46 49 52 53 53 53 53 54 55 55 54 54 54 54 54 52 52 54 54 55 56 58 55 54 52 52 52 51
22 24 24 25 27 28 29 31 33 35 36 37 41 41 43 44 42 46 51 49 51 52 53 54 54 54 54 54 54 54 53 53 53 53 52 53 54 57 57 54 52 52 51
19 21 22 23 24 26 27 29 32 32 34 35 37 39 40 42 41 42 44 44 46 49 49 51 53 54 54 53 53 54 54 53 53 53 54 54 53 53 55 58 54 53 51
17 18 19 21 23 24 25 27 30 31 32 33 35 36 38 39 39 40 40 41 41 46 46 52 54 54 53 53 53 52 52 53 54 54 54 55 55 54 54 55 57 55 52
14 16 17 18 19 21 23 25 28 28 29 31 32 33 35 36 38 38 39 38 39 41 47 50 53 51 49 50 52 52 52 52 52 54 55 55 55 56 55 54 55 57 55
13 15 15 16 17 18 20 23 25 25 27 30 30 31 32 32 34 34 36 36 35 38 40 44 51 46 46 46 48 49 52 53 52 52 53 54 55 56 56 55 55 55 56
14 14 14 14 16 16 17 20 22 23 25 27 28 27 29 30 32 33 34 35 35 33 34 38 42 43 42 41 43 47 49 51 51 52 52 52 53 54 55 55 55 55 55
14 13 12 12 13 14 15 17 20 21 21 24 24 24 26 27 29 31 32 32 33 35 33 37 36 37 37 39 42 44 45 48 50 51 51 52 52 52 53 54 54 54 54
13 13 12 11 11 11 12 13 17 18 19 20 22 24 23 23 24 27 30 30 30 31 31 30 31 32 34 36 39 41 44 45 48 49 49 50 51 51 52 53 53 54 53
13 12 11 10 9 9 10 10 13 16 18 19 20 22 21 20 22 24 25 26 27 28 28 28 30 31 32 33 36 38 41 44 46 46 47 48 49 50 51 52 53 53 53
12 12 11 9 9 9 8 9 12 14 16 18 20 19 19 20 19 21 23 25 27 27 27 27 27 29 30 32 33 35 36 38 41 43 45 46 47 48 50 51 52 53 52
12 12 11 10 9 9 7 7 10 14 16 18 20 20 19 19 18 21 23 24 24 25 25 25 26 27 28 30 31 32 32 37 37 40 42 46 46 47 48 49 50 51 51
12 11 11 10 10 9 7 7 10 14 16 17 19 17 18 19 21 23 23 22 24 25 25 25 24 25 26 27 29 31 33 33 33 39 42 40 43 44 44 46 49 50 51
13 11 10 9 9 8 8 13 15 15 17 18 16 15 17 19 20 21 21 23 26 25 24 23 24 23 23 25 25 30 30 31 29 33 34 34 37 40 41 44 46 47 50
13 11 10 10 9 9 11 15 18 17 17 17 16 16 14 13 18 17 18 22 23 23 24 22 21 20 21 22 26 26 27 28 28 30 31 32 36 38 41 43 44 45 46
14 12 11 10 9 8 12 16 18 18 17 16 16 15 13 14 16 18 18 20 22 21 19 19 20 21 22 23 23 24 25 27 28 30 30 31 35 36 39 40 41 43 44
14 14 11 11 9 8 13 16 17 16 15 14 12 13 14 15 16 20 20 21 20 18 17 19 21 23 24 24 25 25 24 25 26 28 31 31 33 36 38 38 38 39 42
15 14 11 10 10 8 11 15 17 14 13 11 10 12 16 19 18 19 21 19 18 17 18 19 20 20 20 21 22 23 23 23 26 24 32 30 29 33 34 37 35 37 40
Wind_Speed
11 11 12 12 12 12 13 13 13 12 11 13 11 3 7 7 5 4 3 4 2 5 6 6 3 2 3 6 4 5 3 4 4 6 5 6 6 7 8 8 9 10 11
11 10 11 12 13 12 12 11 12 12 11 9 10 6 4 6 5 5 4 6 3 3 8 6 4 4 1 1 3 4 3 4 4 5 5 5 5 7 7 8 8 10 10
10 10 10 11 12 11 12 11 12 11 10 11 9 7 2 4 4 5 5 4 6 3 3 6 3 2 4 3 1 3 1 3 4 4 4 6 6 6 6 7 8 9 10
12 10 10 11 11 11 12 12 12 12 13 13 13 10 4 1 2 3 5 3 4 2 5 3 6 4 3 3 3 4 4 3 2 6 6 6 6 6 6 6 7 8 9
11 10 10 11 11 12 12 12 11 11 11 13 11 10 6 2 4 3 3 5 4 3 3 4 2 1 4 2 3 4 4 5 4 4 7 8 6 7 7 7 7 8 9
10 8 8 10 11 12 13 14 12 11 10 14 9 8 8 4 5 6 9 6 7 5 3 3 3 3 2 3 2 7 8 5 6 5 4 8 9 8 8 8 9 9 10
10 10 9 10 10 11 13 15 12 11 12 19 7 9 10 9 7 7 9 8 6 7 8 5 5 5 4 4 4 4 7 11 10 8 7 6 8 9 9 10 10 10 11
11 10 10 10 11 10 13 14 15 10 8 14 8 3 1 8 14 12 8 11 12 7 7 7 8 7 6 7 9 5 5 10 13 15 13 10 9 9 10 10 11 11 12
10 10 11 10 11 11 11 12 13 13 9 8 11 6 5 5 5 4 10 10 9 10 9 9 8 8 7 6 7 9 9 9 11 15 16 17 13 11 9 11 11 12 12
10 10 11 11 11 10 11 10 11 9 10 9 4 10 4 3 4 2 4 9 10 11 11 10 5 8 11 10 10 13 15 14 12 14 16 19 19 18 14 12 11 12 13
9 10 11 11 11 10 10 11 10 11 9 7 7 6 4 5 9 6 3 10 8 11 11 8 11 11 8 11 12 13 14 15 16 18 17 17 18 20 21 16 13 12 12
5 8 8 9 9 9 10 9 9 10 9 8 6 8 8 5 8 6 4 11 12 6 14 7 7 7 10 10 11 17 20 18 17 19 21 22 21 19 20 21 16 14 12
3 5 6 7 7 8 8 8 8 8 9 8 8 6 6 6 7 5 4 6 5 7 4 6 7 11 13 15 15 20 18 18 17 21 20 23 25 22 19 21 19 16 14
4 3 4 5 6 6 7 6 6 7 7 7 8 8 6 5 5 5 5 6 7 6 10 4 2 9 13 15 19 24 18 17 19 18 20 21 24 24 19 20 19 17 16
5 4 4 4 4 4 5 5 5 6 6 6 7 7 6 6 5 5 5 5 4 5 7 8 8 14 19 18 19 18 18 21 20 21 20 19 19 22 24 22 22 17 16
7 5 4 3 3 2 3 3 3 5 5 6 6 7 7 7 6 5 5 4 4 5 6 5 17 20 21 20 16 18 18 21 18 17 18 18 19 20 22 23 24 21 18
8 7 5 4 3 2 2 2 2 3 4 5 6 6 7 8 7 6 6 5 6 6 12 14 12 17 20 22 22 20 17 17 14 17 20 18 19 19 21 22 23 22 21
10 9 7 6 5 3 2 1 1 1 2 3 4 4 5 6 6 6 6 7 6 8 12 18 15 15 17 20 21 22 19 15 15 15 20 21 18 20 19 21 21 21 22
13 12 10 9 8 6 5 4 3 2 2 2 2 3 3 4 5 6 6 7 7 8 11 14 17 15 15 15 17 17 19 19 16 19 20 19 19 20 19 20 20 20 23
16 14 13 11 10 8 7 6 6 4 4 4 4 4 3 3 4 6 5 6 7 9 9 13 16 17 16 15 14 17 20 16 22 21 18 13 16 16 18 18 21 19 23
17 16 14 13 12 11 9 9 8 6 6 6 6 6 5 4 5 5 6 7 8 8 10 11 14 17 18 19 19 17 18 19 18 17 15 18 20 18 15 17 16 19 21
20 18 18 16 15 12 13 13 10 8 7 7 8 7 7 8 6 6 7 8 9 10 10 12 13 15 17 17 18 17 20 21 17 9 23 26 20 22 18 15 17 20 20
21 21 20 19 18 15 15 15 13 10 9 8 9 9 9 7 8 8 8 9 9 9 9 12 15 14 17 16 18 19 19 20 22 21 22 28 18 22 18 15 19 17 19
23 22 21 20 17 15 16 16 14 12 10 11 11 10 11 11 10 9 10 11 11 10 10 10 12 14 15 17 19 20 23 23 20 18 17 23 20 22 21 15 18 21 18
22 22 20 20 19 16 17 17 15 12 12 13 11 11 12 13 12 12 12 13 12 13 12 13 16 19 21 19 17 17 18 17 22 20 14 19 12 21 20 21 13 13 16
20 17 19 18 18 16 16 17 15 12 13 12 13 13 15 17 16 14 14 13 14 14 12 14 16 17 17 17 16 15 16 18 16 15 2 13 18 16 10 4 5 9 11
Wind_Direction
18 19 19 17 11 4 0 358 356 346 357 355 344 286 279 250 232 212 215 167 167 157 143 145 129 147 81 93 71 69 41 62 53 56 45 45 41 38 38 33 27 27 20
18 21 20 18 14 7 358 344 347 348 347 350 343 331 255 278 243 226 222 180 206 164 145 139 145 142 146 133 114 86 22 359 21 38 23 29 30 24 21 21 17 18 15
17 20 24 20 12 4 359 356 351 353 353 2 14 328 277 252 295 239 234 241 182 211 179 154 159 202 160 110 160 131 50 331 359 356 6 5 13 11 9 7 5 8 8
17 21 24 17 8 10 6 4 2 356 0 349 356 2 355 212 185 322 290 244 245 243 184 186 174 198 192 211 225 181 176 277 357 322 334 337 348 349 348 354 352 357 360
21 27 20 15 11 16 16 4 5 10 1 343 337 353 360 67 83 105 63 4 309 285 275 131 269 232 190 265 301 245 224 203 183 304 315 317 324 328 331 336 339 345 349
30 35 30 24 21 21 17 10 6 9 11 350 332 3 21 46 73 70 75 43 348 341 296 313 293 238 193 204 332 338 332 246 233 221 267 300 308 315 319 322 326 331 335
30 33 35 31 27 31 22 16 6 10 18 2 8 6 64 51 41 62 76 70 37 10 348 355 325 307 301 237 236 279 307 321 327 260 244 251 288 302 307 310 312 317 323
33 34 35 33 31 31 29 22 20 13 13 19 15 327 324 87 53 49 58 68 72 42 27 7 334 325 330 327 327 262 274 302 309 318 309 265 257 280 292 297 302 305 313
37 34 37 37 37 36 32 24 24 28 12 5 27 23 358 18 324 65 51 32 56 83 68 35 342 308 302 297 294 278 253 262 279 291 300 308 291 260 256 280 288 295 303
41 36 36 36 37 35 34 26 23 30 27 21 353 15 13 11 2 7 74 22 4 7 27 34 5 341 316 294 278 275 280 258 256 276 285 292 296 299 262 255 265 282 292
41 37 35 33 35 33 29 27 25 28 33 37 26 359 1 355 17 50 320 340 349 350 359 4 347 341 345 336 309 288 267 277 269 268 277 278 287 291 298 279 256 259 277
51 40 39 37 35 31 25 23 21 25 23 35 37 32 30 23 18 9 335 341 331 321 332 348 335 354 359 356 334 337 316 295 279 270 272 278 280 280 287 294 292 258 263
95 62 51 46 38 32 28 25 27 29 22 26 28 28 41 33 17 3 334 336 327 308 317 322 17 38 20 5 346 343 326 317 310 293 273 272 276 278 278 281 290 290 263
124 107 80 65 50 36 30 27 34 29 24 27 25 23 34 32 23 12 3 342 323 336 314 356 39 43 7 357 342 344 333 324 322 314 302 288 284 280 273 278 283 280 276
148 133 104 88 70 56 42 37 40 31 30 25 23 19 19 21 24 12 0 354 5 339 320 308 313 345 346 339 331 333 336 329 326 311 303 297 290 288 280 269 273 273 258
166 159 146 129 110 80 57 48 52 35 28 27 21 18 18 10 13 6 0 3 331 281 261 315 307 317 326 325 325 325 323 322 317 310 308 302 299 289 282 274 270 268 235
180 179 174 170 164 142 86 63 63 33 27 24 24 18 14 8 5 2 355 349 321 303 284 296 302 321 323 328 326 323 314 319 317 317 319 315 306 298 287 275 268 263 233
192 190 188 192 189 180 166 140 129 38 13 16 14 13 14 6 6 3 349 334 314 308 309 313 320 320 321 326 325 327 320 313 316 322 313 307 303 297 293 286 273 261 234
198 197 199 201 201 198 198 204 210 232 277 304 327 339 354 0 2 354 344 335 329 324 313 310 316 321 323 325 328 328 330 333 321 317 319 319 317 317 308 298 287 267 234
202 203 205 206 206 205 210 214 215 231 260 275 289 300 316 333 338 335 334 332 329 319 316 320 318 320 325 330 330 335 333 336 334 330 316 313 315 317 319 312 292 284 244
206 206 206 208 209 211 213 213 215 230 247 264 267 278 276 298 295 299 312 317 312 313 313 314 316 318 324 331 338 336 331 329 327 321 342 334 330 326 325 316 312 296 262
207 205 208 209 209 212 213 209 218 230 238 257 275 278 280 285 278 279 296 295 297 305 309 310 309 310 314 322 322 330 323 329 328 323 329 311 315 307 306 299 299 301 288
206 209 210 209 212 213 209 209 218 236 240 244 260 273 279 275 273 287 290 285 278 282 284 294 293 297 305 313 323 315 311 307 300 302 304 297 303 298 295 282 293 295 294
208 208 211 210 211 214 209 211 218 230 241 249 251 258 267 270 269 275 287 287 281 279 281 283 281 290 297 307 305 302 304 298 292 297 309 298 309 300 300 287 281 281 275
208 210 210 208 209 212 208 210 212 223 236 247 253 255 259 263 264 266 274 275 283 288 291 279 282 285 286 290 294 300 297 305 304 307 303 284 302 306 299 293 296 300 285
216 210 211 211 210 213 207 210 214 227 237 244 249 247 245 252 262 260 265 275 279 284 289 291 290 291 291 290 292 283 290 294 303 313 67 350 321 331 309 276 307 323 307